Kirksville, MO

5:54 AM CDT on April 20, 2018 (GMT -0500)
Kirksville Regional

Weather History for KIRK - May, 2014

Change the Weather History Date:

Saturday, May 17, 2014

  Actual Average Record
Temperature  
Mean Temperature 47 °F 62 °F  
Max Temperature 65 °F 73 °F 90 °F (1944)
Min Temperature 29 °F 52 °F 29 °F (2014)
Degree Days  
Heating Degree Days 18 5  
Month to date heating degree days 138 111  
Since 1 July heating degree days 6411 5801  
Cooling Degree Days 0 2  
Month to date cooling degree days 32 20  
Year to date cooling degree days 37 27  
Moisture  
Dew Point 31 °F    
Average Humidity 63    
Maximum Humidity 100    
Minimum Humidity 26    
Precipitation  
Precipitation 0.00 in 0.13 in 2.32 in (1986)
Month to date precipitation 1.08 2.74  
Year to date precipitation 8.68 11.93  
Sea Level Pressure  
Sea Level Pressure 30.18 in    
Wind  
Wind Speed 3 mph (West)    
Max Wind Speed 12 mph    
Max Gust Speed 16 mph    
Visibility 10 miles    
Events      
T = Trace of Precipitation, MM = Missing Value Source: NWS Daily Summary

Daily Weather History Graph

Daily Weather History Graph

Search for Another Location

Airport or City:

Astronomy

May. 17, 2014 Rise Set
Actual Time 5:52 AM CDT 8:20 PM CDT
Civil Twilight 5:21 AM CDT 8:51 PM CDT
Nautical Twilight 4:43 AM CDT 9:30 PM CDT
Astronomical Twilight 4:01 AM CDT 10:13 PM CDT
Moon 11:21 PM CDT (5/17) 8:36 AM CDT (5/17)
Length of Visible Light 15h 29m
Length of Day
14h 27m
Waning Gibbous, 89% of the Moon is Illuminated
May 17
Waning Gibbous
May 21
Last Quarter
May 28
New
Jun 5
First Quarter
Jun 12
Full

Hourly Weather History & Observations

Time (CDT) Temp. Windchill Dew Point Humidity Pressure Visibility Wind Dir Wind Speed Gust Speed Precip Events Conditions
12:55 AM 35.1 °F - 32.0 °F 89% 30.16 in 10.0 mi Calm Calm - N/A   Partly Cloudy
1:55 AM 32.0 °F - 30.9 °F 96% 30.17 in 10.0 mi Calm Calm - N/A   Clear
2:55 AM 33.1 °F - 30.0 °F 89% 30.16 in 10.0 mi Calm Calm - N/A   Clear
3:55 AM 28.9 °F - 28.0 °F 96% 30.17 in 10.0 mi Calm Calm - N/A   Clear
4:55 AM 32.0 °F - 30.0 °F 92% 30.17 in 10.0 mi Calm Calm - N/A   Clear
5:55 AM 32.0 °F - 28.9 °F 88% 30.16 in 10.0 mi Calm Calm - N/A   Clear
6:55 AM 34.0 °F 31.0 °F 32.0 °F 92% 30.17 in 10.0 mi WSW 3.5 mph - N/A   Clear
7:55 AM 45.0 °F 42.6 °F 37.9 °F 76% 30.17 in 10.0 mi West 4.6 mph - N/A   Clear
8:55 AM 52.0 °F - 37.9 °F 59% 30.19 in 10.0 mi Calm Calm - N/A   Clear
9:55 AM 55.9 °F - 28.0 °F 34% 30.19 in 10.0 mi East 4.6 mph - N/A   Clear
10:55 AM 60.1 °F - 28.0 °F 30% 30.19 in 10.0 mi NE 9.2 mph - N/A   Clear
11:55 AM 60.1 °F - 27.0 °F 28% 30.20 in 10.0 mi Variable 3.5 mph - N/A   Clear
12:55 PM 61.0 °F - 28.9 °F 30% 30.20 in 10.0 mi North 5.8 mph - N/A   Clear
1:55 PM 62.1 °F - 28.0 °F 28% 30.19 in 10.0 mi Variable 4.6 mph - N/A   Scattered Clouds
2:55 PM 62.1 °F - 28.9 °F 29% 30.17 in 10.0 mi SE 4.6 mph - N/A   Clear
3:55 PM 63.0 °F - 28.9 °F 28% 30.16 in 10.0 mi SSW 8.1 mph - N/A   Clear
4:55 PM 64.0 °F - 28.9 °F 27% 30.15 in 10.0 mi Calm Calm - N/A   Clear
5:55 PM 62.1 °F - 32.0 °F 32% 30.15 in 10.0 mi WNW 6.9 mph - N/A   Partly Cloudy
6:55 PM 63.0 °F - 32.0 °F 31% 30.15 in 10.0 mi WNW 5.8 mph - N/A   Clear
7:55 PM 57.9 °F - 34.0 °F 41% 30.17 in 10.0 mi Calm Calm - N/A   Clear
8:55 PM 53.1 °F - 33.1 °F 47% 30.18 in 10.0 mi North 4.6 mph - N/A   Clear
9:55 PM 46.9 °F - 35.1 °F 63% 30.19 in 10.0 mi Calm Calm - N/A   Clear
10:55 PM 46.0 °F 44.8 °F 36.0 °F 68% 30.21 in 10.0 mi SSW 3.5 mph - N/A   Mostly Cloudy
11:55 PM 50.0 °F - 36.0 °F 59% 30.21 in 10.0 mi SSW 3.5 mph - N/A   Overcast